Погода в Елани

Погода в Елани : погода сейчас, прогноз погоды и архив. Всё, что Вы хотите узнать о погоде в Елани!

Хотите узнать прогноз погоды в Елани? Тогда Вам сюда: Погода в Елани

Поиск расширенной информации на нашем сайте:

Другие новости

Новости СМИ2

Главная страница сайта

Новости сайта

02.10.2013

Напоминаем, что на нашем новом сайте вы можете получить высокодетализированные прогнозы погоды по пунктам России, СНГ и мира (включающие важные для авиации метеовеличины, такие как направление и скорость ветра, видимость, явления погоды, количество и форма облачности, нижняя и верхняя граница облачности), а также ознакомиться с разнообразными материалами по авиационной метеорологии и подборкой полезных ссылок на эту тему.

Сайт Метеоцентр.Азия посвящён разработке технологий оптимизации авиаметеорологического обслуживания, включая проектирование и перспективное создание нескольких автоматизированных авиаметеорологических систем:
- система выпуска высокодетальных прогностических карт явлений погоды для нижнего воздушного пространства по России и ближнему зарубежью;
- система верификации прогнозов TAF (выпускаемых синоптиками официальных АМСГ РФ и ближнего зарубежья) и AUTOTAF (выпускаемых сайтом Метеоцентр.Азия) - выявление ошибок, онлайн-сопоставление с фактической погодой METAR, автоматическое внесение коррективов в прогнозы при резком отклонении фактической погоды от прогноза, подсчёт оправдываемости прогнозов по элементам и в целом;
- система обработки, анализа и отображения авиаметеорологической информации для применения провайдерами метеорологической информации.

Рекомендуем: пластиковый контейнер с крышкой прозрачный для хранения

Погода в Елани - сегодня

Время (UTC), дата Ветер
(°,м/с) 
Видим.   Явления Облачность Т
(°С)
Тd
(°С)
f(%) Тe
(°С)
Pmin
(гПа)
dP
(гПа)
Po
(мм)
O2
(г/м3)
Тmin Tmax R s Состояние
почвы
12 16.02.17 350 (С) 6-10{13}  10 км  слаб. ливневой снег  10/10 300 м кучево-дожд. 
[Cb cap]
-5.2 -9 75 -10  1024.4  0.7  755  311           
15 16.02.17 340 (С) 4{12}  20000 м  {ливн. осадки}  8/8 300 м кучево-дожд. 
[Cb cap]
-6.6 -10 77 -10  1026.2  1.7  757  313    -5.1  0.0     
18 16.02.17 360 (С) 20000 м  {ливн. осадки}  10/8 300 м кучево-дожд., средняя 
[Cb cap|Ac cast]
-7.1 -10.3 78 -11  1027.9  1.6  758  315           
21 16.02.17 340 (С) 20000 м    8/0 средняя 
[Ac cast]
-9 -11.7 81 -11  1028.7  0.6  758  317           
00 17.02.17 340 (С) 20000 м    9/0 средняя 
[Ac lent]
-10.7 -13.2 82 -14  1029.2  0.3  759  319           
03 17.02.17 270 (З) 20000 м    ясно 
-17.3 -19 87 -17  1029.9  0.2  759  328  -17.3      33  равномерный
сухой снег
100% 
06 17.02.17 тихо ()   20000 м    ясно 
-15.5 -17.7 83 -16  1030.2  0.5  759  326  -19.5         
09 17.02.17 230 (ЮЗ) 20000 м    ясно 
-11 -15.2 71 -13  1029.3  -0.7  759  320           
12 17.02.17 210 (ЮЗ) 20000 м    ясно 
-9.2 -13.9 69 -11  1027.6  -1.5  758  317           
15 17.02.17 180 (Ю) 20000 м    8/0 средняя, верхняя 
[Ac trans|Ci fib]
-12.2 -14.9 80 -14  1026.6  -1.3  757  320    -8.9       
18 17.02.17 180 (Ю) 20000 м    6/0 средняя 
[Ac trans]
-10.9 -14.1 77 -15  1024.8  -1.6  755  318           
21 17.02.17 200 (Ю) 20000 м    10/0 средняя 
[Ac und]
-9.4 -12.1 81 -14  1023  -1.7  754  316           
00 18.02.17 200 (Ю) 20000 м    10/0 средняя 
[Ac und]
-8.1 -10.4 83 -12  1020.7  -2.1  752  313           
03 18.02.17 210 (ЮЗ) 6{10}  20000 м    10/0 средняя 
[Ac As]
-6.7 -9 84 -11  1018.6  -1.9  751  311  -12.1      32  равномерный
сухой снег
100% 
06 18.02.17 220 (ЮЗ) 20000 м    10/0 средняя 
[Ac As]
-4.9 -7.2 84 -9  1017.6  -0.8  750  309           
09 18.02.17 220 (ЮЗ) 6{10}  4000 м  слаб. снег  10/10 100 м 
[Frnb|Ns]
-3.1 -5 87 -7  1016.8  -0.7  750  306           
12 18.02.17 240 (ЮЗ) 7-10{10}  20000 м  {снег}  10/0 средняя 
[As op]
-0.3 -2.2 87 -4  1015.7  -0.9  749  302           
15 18.02.17 240 (ЮЗ) 8-11{12}  20000 м    10/0 средняя 
[As op]
+0.1 -1.7 88 -4  1016.3  0.7  750  302    +0.5  0.0     
18 18.02.17 240 (ЮЗ) 7-10{11}  20000 м    10/10 300 м 
[Sc]
+0.2 -1.7 87 -4  1016.4  0.1  750  302           
21 18.02.17 240 (ЮЗ) 7-11{11}  20000 м    10/0 средняя 
[Ac und]
+0.4 -1.4 88 -3  1016.5  0.1  750  302           
00 19.02.17 230 (ЮЗ) 6{12}  20000 м    10/0 средняя 
[Ac As]
+0.7 -0.8 90 -3  1016.8  0.3  750  302           
03 19.02.17 250 (З) 7-10{11}  20000 м    10/0 средняя 
[Ac As]
+1.1 -0.5 89 -3  1017.5  0.8  751  301  +0.1      32  равномерный
мокрый или
старый снег
100% 
06 19.02.17 260 (З) 7-11{11}  10 км  слаб. морось  10/10 100 м 
[St]
+1.3 -0.7 86 -2  1019.1  1.6  752  302           
09 19.02.17 260 (З) 6{11}  20000 м  в посл. час морось  10/0 средняя 
[As op]
+1.4 -1 84 -2  1020.7  1.5  753  302           
12 19.02.17 240 (ЮЗ) 20000 м  {морось}  10/0 средняя 
[Ac As]
+1.3 -1.2 83 -2  1021.1  0.5  753  302           
Время (UTC), дата Ветер
(°,м/с) 
Видим.   Явления Облачность Т
(°С)
Тd
(°С)
f(%) Тe
(°С)
Pmin
(гПа)
dP
(гПа)
Po
(мм)
O2
(г/м3)
Тmin Tmax R s Состояние
почвы

Для получения пояснительной информации подведите курсор к названию столбца.

ПОГОДА в Елани - архив

Всё, что Вы хотите узнать о погоде в Елани - удобно и подробно!

Выберите нужную дату (начиная с 1 января 2015* года) и нажмите кнопку "Найти".
Будут отображены архивные сводки погоды по пункту Елань, начиная с указанной даты.


Отображать данные в формате CSV (для использования в таблицах Excel)


Внимание! Наш архив погоды предназначен исключительно для личного некоммерческого использования в познавательных целях. Если Вам необходимы официальные справки о состоянии погоды (для производственных, юридических, коммерческих и т.п. целей), обращайтесь в органы Росгидромета.

*Примечание: данная дата относится к архиву по метеостанциям СССР (Россия, СНГ, Балтия).
Архив по метеостанциям Зарубежной Европы и Азии (кроме Китая) хранится 10 дней, по другим регионам земного шара (Китай, Африка, Америка, Австралия, Океания) - 1 день.

Елань - район местоположения метеостанции


Название, широта, долгота, высота метеостанции:
Елань 50.9°ш. 43.7°д. 132 м над ур. моря [Российская Федерация]

Дополнительная информация

В oтличие oт бoльшинства пoгoдных сайтoв мы публикуем пoдрoбную метеoинфoрмацию в детальнoм прoфессиoнальнoм фoрмате.

Характеристики температуры и влажнoсти вoздуха измеряются на высoте 2 м в тени вдали oт зданий и деревьев.
Скoрoсть ветра измеряется на высoте 10 м (на урoвне рoста челoвека скoрoсть ветра ниже в 1.5-2 раза). Если метеoстанция нахoдится в гoрoде или в лесу, тo скoрoсть ветра занижена на 2-4 м/с пo сравнению с oткрытым местoм. Скoрoсть ветра над акватoриями крупных рек и oзёр, а также на вершинах хoлмoв на 2-5 м/с выше, чем в oбычных услoвиях.
Атмoсфернoе давление в разных тoчках местнoсти мoжет значительнo oтличаться oт давления на метеoстанции, в зависимoсти oт услoвий рельефа (при пoдъёме на 10 м давление пoнижается примернo на 1 мм рт.ст.).